Content
SEND FEEDBACK

Daily
Averages
Monthly
Summary
United Kingdom

INVERNESS, SCOTLAND


Home > Europe > United Kingdom > Scotland
Elevation: 30 feet     Latitude: 57 32N     Longitude: 004 03W

WEATHER
 
SELECT A DAY
Number of Records: 234,082;   Date Range: 7/1/96 - 10/23/14
 
SHARE

PRINT THIS DATA

[ ← Previous Day ]
WEATHER ALMANAC - MARCH 14, 2013
[ Next Day → ]
[ °C ]   °F
Weather ElementAverageHighLow
Temperature37.7 °F44.6 °F (11:50 am)28.4 °F (2:20 am)
Dewpoint34.1 °F39.2 °F (2:20 pm)26.6 °F (2:20 am)
Humidity87.1 %93 % (1:50 am)71 % (11:50 am)
Barometer29.75 in29.98 in (12:50 am)29.44 in (11:50 pm)
Wind Speed6.9 mph11.5 mph (11:50 am)
Weather ElementAverage
Visibility6.1 mi
Wind DirectionSSW (208.1 °)

Weather ElementTotal
Precipitation---
Heating Degree Days28.5 (Base 65)
Averaged from 47 records on March 14, 2013
WEATHER CONDITIONS BREAKOUT
WIND DIRECTION BREAKOUT
WEATHER BY HOUR - MARCH 14, 2013
[ °C ]   °F
Local TimeTemperatureDewpointHumidityBarometerVisibilityWind DirectionWind SpeedGust SpeedPrecipitationEventsConditions
12:50 AM32.0 °F28.4 °F87 %29.98 in6.2 miSW (230°)8.1 mph
1:20 AM32.0 °F28.4 °F87 %29.98 in6.2 miSW (220°)8.1 mphSnowLight Snow
1:50 AM30.2 °F28.4 °F93 %29.95 in6.2 miSW (220°)6.9 mph
2:20 AM28.4 °F26.6 °F93 %29.95 in6.2 miSW (230°)4.6 mph
2:50 AM30.2 °F28.4 °F93 %29.95 in6.2 miSW (230°)8.1 mphScattered Clouds
3:20 AM30.2 °F28.4 °F93 %29.92 in6.2 miSW (230°)8.1 mphScattered Clouds
3:50 AM30.2 °F26.6 °F86 %29.92 in6.2 miSW (230°)9.2 mphScattered Clouds
4:20 AM30.2 °F26.6 °F86 %29.92 in6.2 miSW (230°)6.9 mphScattered Clouds
4:50 AM30.2 °F28.4 °F93 %29.92 in6.2 miSW (230°)9.2 mphScattered Clouds
5:20 AM32.0 °F28.4 °F87 %29.89 in6.2 miSW (230°)8.1 mphPartly Cloudy
5:50 AM32.0 °F30.2 °F93 %29.89 in6.2 miSW (230°)6.9 mphRainLight Rain
6:20 AM32.0 °F30.2 °F93 %29.89 in4.3 miSSW (210°)5.8 mphSnowLight Snow Showers
6:50 AM33.8 °F30.2 °F87 %29.89 in4.3 miSW (220°)8.1 mphSnowLight Snow
7:20 AM33.8 °F30.2 °F87 %29.86 in6.2 miSW (220°)6.9 mphRain-SnowLight Snow
7:50 AM33.8 °F32.0 °F93 %29.86 in6.2 miSW (220°)5.8 mphMostly Cloudy
8:20 AM35.6 °F32.0 °F87 %29.86 in6.2 miSW (230°)8.1 mphScattered Clouds
8:50 AM37.4 °F33.8 °F87 %29.86 in6.2 miSW (230°)8.1 mphScattered Clouds
9:20 AM37.4 °F33.8 °F87 %29.86 in6.2 miSW (230°)9.2 mphRainLight Rain
9:50 AM39.2 °F33.8 °F81 %29.83 in6.2 miSW (230°)10.4 mphRainLight Rain Showers
10:20 AM39.2 °F35.6 °F87 %29.83 in6.2 miSW (230°)6.9 mphMostly Cloudy
10:50 AM41.0 °F35.6 °F81 %29.83 in6.2 miWSW (240°)6.9 mphScattered Clouds
11:20 AM42.8 °F35.6 °F76 %29.80 in6.2 miWSW (240°)10.4 mphScattered Clouds
11:50 AM44.6 °F35.6 °F71 %29.80 in6.2 miSW (220°)11.5 mphScattered Clouds
12:20 PM42.8 °F35.6 °F76 %29.77 in6.2 miWSW (240°)9.2 mphMostly Cloudy
12:50 PM44.6 °F35.6 °F71 %29.77 in6.2 miSW (230°)9.2 mphMostly Cloudy
1:20 PM44.6 °F35.6 °F71 %29.74 in6.2 miWSW (240°)8.1 mphMostly Cloudy
1:50 PM44.6 °F37.4 °F76 %29.74 in6.2 miWSW (240°)8.1 mphRainLight Rain Showers
2:20 PM42.8 °F39.2 °F87 %29.71 in6.2 miWSW (240°)10.4 mphMostly Cloudy
2:50 PM42.8 °F39.2 °F87 %29.71 in6.2 miWSW (240°)6.9 mphScattered Clouds
3:20 PM42.8 °F39.2 °F87 %29.71 in6.2 miWSW (240°)9.2 mphRainLight Rain Showers
3:50 PM41.0 °F39.2 °F93 %29.68 in6.2 miWest (260°)8.1 mphRainLight Rain
4:20 PM41.0 °F39.2 °F93 %29.68 in6.2 miWest (270°)3.5 mphMostly Cloudy
4:50 PM41.0 °F39.2 °F93 %29.65 in6.2 miWest (280°)2.3 mphScattered Clouds
5:20 PM41.0 °F39.2 °F93 %29.65 in6.2 miEast (100°)3.5 mphRainLight Rain
5:50 PM41.0 °F39.2 °F93 %29.65 in6.2 miCalmPartly Cloudy
6:20 PM39.2 °F37.4 °F93 %29.62 in6.2 miVariable2.3 mphPartly Cloudy
6:50 PM41.0 °F37.4 °F87 %29.62 in6.2 miSW (220°)6.9 mphRainLight Rain
7:20 PM41.0 °F37.4 °F87 %29.59 in6.2 miSouth (190°)4.6 mphScattered Clouds
7:50 PM41.0 °F37.4 °F87 %29.59 in6.2 miSW (220°)6.9 mphRainLight Rain
8:20 PM39.2 °F37.4 °F93 %29.56 in6.2 miCalmRainLight Rain
8:50 PM39.2 °F37.4 °F93 %29.56 in6.2 miSSW (210°)3.5 mphRainLight Rain
9:20 PM39.2 °F37.4 °F93 %29.53 in6.2 miSW (220°)8.1 mphScattered Clouds
9:50 PM39.2 °F35.6 °F87 %29.53 in6.2 miSW (220°)8.1 mph
10:20 PM39.2 °F35.6 °F87 %29.50 in6.2 miWSW (240°)6.9 mph
10:50 PM39.2 °F35.6 °F87 %29.50 in6.2 miVariable3.5 mph
11:20 PM39.2 °F35.6 °F87 %29.47 in6.2 miSW (230°)4.6 mph
11:50 PM39.2 °F35.6 °F87 %29.44 in6.2 miSW (220°)6.9 mph
Hourly data recorded from EGPE, located miles away from Inverness, Scotland







STORIES FROM OUR PARTNERS